Location: Mlada Boleslav
(50.4170°N, 14.9000°E)
Time: 02:52:02
(UTC+02:00)

ISS - Visible Passes

Search period start: 17 October 2019 00:00
Search period end: 27 October 2019 00:00
Orbit: 411 x 421 km, 51.6° (Epoch: 16 October)

Date Brightness Start Highest point End Pass type
(mag) Time Alt. Az. Time Alt. Az. Time Alt. Az.
24 Oct -0.9 06:50:32 10° S 06:52:47 17° SE 06:55:01 10° E visible
25 Oct -0.6 06:03:26 10° SSE 06:04:26 11° SE 06:05:26 10° ESE visible
26 Oct -2.1 06:48:59 10° SW 06:52:03 33° SSE 06:55:07 10° E visible
